EST,Max TemperatureF,Mean TemperatureF,Min TemperatureF,Max Dew PointF,MeanDew PointF,Min DewpointF,Max Humidity, Mean Humidity, Min Humidity, Max Sea Level PressureIn, Mean Sea Level PressureIn, Min Sea Level PressureIn, Max VisibilityMiles, Mean VisibilityMiles, Min VisibilityMiles, Max Wind SpeedMPH, Mean Wind SpeedMPH, Max Gust SpeedMPH,PrecipitationIn, CloudCover, Events, WindDirDegrees
2012-11-1,50,44,39,38,33,27,93,71,43,29.81,29.71,29.66,10,10,3,18,12,25,0.00,7,Rain,297
2012-11-2,43,38,34,31,29,26,82,68,57,30.12,29.95,29.81,10,10,10,17,12,24,0.00,7,,329
2012-11-3,39,34,30,28,27,25,85,74,62,30.24,30.20,30.12,10,10,10,10,7,,0.00,3,,332
2012-11-4,39,34,28,25,24,22,82,69,55,30.26,30.23,30.19,10,10,10,9,5,,0.00,5,,325
2012-11-5,37,32,26,28,25,22,85,74,62,30.27,30.24,30.20,10,10,10,13,6,,0.00,6,,28
2012-11-6,41,37,33,28,27,24,82,70,53,30.19,30.10,30.02,10,10,10,10,3,,0.00,8,,159
2012-11-7,45,36,28,32,29,23,89,74,58,30.19,30.12,30.04,10,10,8,10,6,,0.00,3,,57
2012-11-8,46,36,27,34,29,24,92,74,54,30.25,30.18,30.11,10,8,3,7,3,,0.00,4,,219
2012-11-9,50,44,39,39,36,33,86,76,66,30.18,30.15,30.11,7,6,4,8,6,,0.00,7,,173
2012-11-10,57,48,42,47,43,39,89,78,69,30.15,30.07,29.96,10,6,2,12,7,,0.00,6,Rain,106
2012-11-11,70,62,55,49,45,37,64,52,38,30.05,29.96,29.87,10,10,10,25,15,38,0.00,1,,191
2012-11-12,62,46,30,50,34,21,89,74,41,30.25,30.00,29.85,10,9,2,24,16,36,0.20,8,Rain-Snow,244
2012-11-13,37,32,27,21,19,17,72,60,46,30.56,30.45,30.27,10,10,10,13,9,,0.00,4,,240
2012-11-14,39,31,23,26,21,17,81,67,50,30.62,30.55,30.47,10,10,10,7,3,,0.00,1,,173
2012-11-15,43,34,26,30,26,22,86,73,58,30.47,30.41,30.37,10,9,6,8,3,,0.00,0,,209
2012-11-16,50,39,28,37,32,24,100,84,61,30.52,30.48,30.39,8,4,0,6,4,,0.00,0,Fog,168
2012-11-17,51,38,24,38,29,23,100,86,50,30.63,30.57,30.50,10,3,0,6,1,,0.00,2,Fog,142
2012-11-18,50,39,28,40,33,26,100,91,68,30.57,30.50,30.43,7,2,0,12,4,,0.00,2,Fog,106
2012-11-19,53,40,26,38,30,24,100,82,44,30.43,30.34,30.18,10,4,0,8,2,,0.00,1,Fog,142
2012-11-20,52,44,35,39,35,29,82,72,59,30.18,30.15,30.11,10,8,5,7,3,,0.00,6,,249
2012-11-21,55,45,35,43,39,34,93,78,59,30.25,30.19,30.11,8,5,2,12,4,,0.00,1,,214
2012-11-22,62,53,44,47,42,37,90,71,41,30.10,29.96,29.72,10,6,1,21,12,30,0.03,2,Rain,199
2012-11-23,55,44,33,46,28,19,75,65,54,29.99,29.77,29.62,10,9,1,30,20,40,0.00,8,Snow,263
2012-11-24,34,32,28,20,19,18,66,60,54,30.12,30.07,30.01,10,10,9,16,13,24,0.00,7,Snow,281
2012-11-25,34,30,26,27,24,18,93,82,64,30.01,29.89,29.81,10,5,1,16,10,20,0.01,8,Snow,218
2012-11-26,33,30,28,24,20,18,74,65,54,30.32,30.20,30.01,10,10,10,12,7,,0.00,8,,280
2012-11-27,33,26,18,20,17,12,78,68,56,30.37,30.31,30.22,10,10,10,14,7,21,0.00,0,,246
2012-11-28,37,30,24,25,21,18,82,68,48,30.31,30.25,30.18,10,10,10,17,10,,0.00,3,,245
2012-11-29,46,36,27,32,28,21,79,71,54,30.26,30.23,30.17,10,10,7,14,9,,0.00,3,,217
2012-11-30,37,36,34,35,32,29,89,85,78,30.30,30.26,30.21,10,6,2,16,12,28,0.00,8,Rain-Snow,61